Simultaneous Nadir Overpasses (SNOs) Predictions

Prediction of SNOs between FY3D and LANDSAT-8 Satellite Orbit:

Table of predicted SNOs for the next 14.0 days since TLE Epoch: 4/20/2024
Index Date (FY3D) Time (FY3D) Lat,Lon (FY3D) SZA (FY3D ) Date (LANDSAT-8) Time (LANDSAT-8) Lat,Lon (LANDSAT-8) SZA (LANDSAT-8 ) Distance(km) Time Diff (sec)
1 04/21/2024 12:54:28 -74.23, 169.67 117.96 04/21/2024 12:55:03 -74.21, 169.57 117.98 3.41 35
2 04/21/2024 13:45:14 74.19, -22.92 61.99 04/21/2024 13:44:29 74.19, -22.84 61.98 2.23 45
3 04/24/2024 04:21:16 74.25, 117.97 61.18 04/24/2024 04:22:03 74.28, 117.96 61.21 3.24 47
4 04/24/2024 05:11:59 -74.20, -74.57 118.88 04/24/2024 05:11:32 -74.21, -74.56 118.87 1.43 27
5 04/26/2024 19:48:01 -74.27, 66.28 119.65 04/26/2024 19:49:05 -74.29, 66.24 119.63 2.92 64
6 04/26/2024 20:38:46 74.24,-126.33 60.31 04/26/2024 20:38:31 74.21,-126.32 60.28 3.43 15
7 04/26/2024 21:29:17 -73.60, 42.60 120.31 04/26/2024 21:28:10 -73.62, 40.01 120.35 81.12 67
8 04/29/2024 11:14:50 74.43, 14.20 59.69 04/29/2024 11:16:01 74.39, 14.70 59.65 15.92 71
9 04/29/2024 12:05:31 -74.28,-178.06 120.48 04/29/2024 12:05:31 -74.27,-177.94 120.49 3.63 0
10 04/29/2024 12:56:12 74.01, -10.05 59.26 04/29/2024 12:55:00 74.08, -10.74 59.30 22.37 72
11 05/02/2024 02:41:46 -75.01, -39.04 120.57 05/02/2024 02:42:51 -74.90, -35.79 120.61 94.67 65
12 05/02/2024 03:32:17 74.27, 130.31 58.72 05/02/2024 03:32:28 74.29, 130.38 58.75 3.21 11



Historial Predications of SNOs between FY3D and LANDSAT-8
